Location: Ambrosina
(19.9365°S, 43.9833°W)
Time: 01:31:13
(UTC+00:00)

Meteor 2-21 Rocket - Pass Details

Date: 11 May 2021
Orbit: 936 x 967 km, 82.6° (Epoch: 20 June)

Event Time Altitude Azimuth Distance (km) Brightness Sun altitude
Rises 22:07:31 0° 355° (N) 3,623 7.7 -23.2°
Reaches altitude 10° 22:09:59 10° 355° (N) 2,687 7.0 -23.8°
Maximum altitude 22:16:10 86° 265° (W) 975 4.4 -25.2°
Enters shadow 22:22:14 11° 176° (S) 2,650 6.6 -26.6°
